Flight Track Log - Related Links

Times and Time Zones

All times are in EST time to prevent confusion due to time zone crossing. See the AAY805 flight status page for this flight to view local times or setup timezone preferences in your user account.

Time Position Orientation Groundspeed Altitude Reporting Facility
EST Latitude Longitude Course Direction KTS MPH feet Rate Location/Type
Sun 09:18:46 34.9333 -85.1028 158° South 268 308 7,000  Level Atlanta Center
Sun 09:19:46 34.8606 -85.0589 154° Southeast 256 295 10,100 2,400 Climbing Atlanta Center
Sun 09:20:46 34.7775 -85.0175 158° South 286 329 11,800 2,277 Climbing Atlanta Center
Sun 09:23:00 34.4618 -84.8726 158° South  Level FlightAware Approximate
Sun 09:26:16 34.1754 -84.7083 157° South 434 499 24,900  Level FlightAware ADS-B (KDZJ)
Sun 09:26:56 34.1000 -84.6703 157° South 450 518 26,000 1,200 Climbing FlightAware ADS-B (KDZJ)
Sun 09:27:46 34.0308 -84.6378 157° South 441 507 26,700 1,145 Climbing Atlanta Center
Sun 09:28:46 33.9119 -84.5794 158° South 447 514 28,100 1,150 Climbing Atlanta Center
Sun 09:29:46 33.7892 -84.5186 158° South 468 539 29,000 500 Climbing Atlanta Center
Sun 09:30:46 33.6619 -84.4606 159° South 482 555 29,100 850 Climbing Atlanta Center
Sun 09:31:46 33.5411 -84.4375 171° South 483 556 30,700 950 Climbing Atlanta Center
Sun 09:32:46 33.4136 -84.4319 178° South 473 544 31,000 150 Climbing Atlanta Center
Sun 09:33:46 33.2864 -84.4314 180° South 463 533 31,000  Level Atlanta Center
Sun 09:35:46 33.0150 -84.4253 177° South 458 527 31,000  Level Atlanta Center
Sun 09:36:46 32.8878 -84.4222 179° South 458 527 31,000  Level Atlanta Center
Sun 09:37:46 32.7583 -84.4192 179° South 458 527 31,000 700 Level Atlanta Center
Sun 09:38:46 32.6289 -84.4161 179° South 458 527 32,400 1,300 Climbing Atlanta Center
Sun 09:39:46 32.5036 -84.4133 179° South 458 527 33,600 1,220 Climbing Atlanta Center
Sun 09:41:48 32.2389 -84.4081 179° South 478 550 36,100 843 Climbing Jacksonville Center
Sun 09:43:48 31.9842 -84.4014 179° South 467 537 37,000 300 Climbing Jacksonville Center
Sun 09:44:48 31.8569 -84.4017 180° South 461 531 37,000  Level Jacksonville Center
Sun 09:50:28 31.1314 -84.2763 166° South 473 544 37,000  Level FlightAware ADS-B (KONZ)
Sun 09:51:51 30.9526 -84.2236 166° South 473 544 37,000  Level FlightAware ADS-B (KONZ)
Sun 09:52:37 30.8549 -84.1949 166° South 474 545 37,000  Level FlightAware ADS-B (KONZ)
Sun 09:53:18 30.7687 -84.1696 166° South 473 544 37,000  Level FlightAware ADS-B (KONZ)
Sun 09:53:56 30.6875 -84.1457 166° South 473 544 37,000  Level FlightAware ADS-B (KONZ)
Sun 09:54:37 30.6008 -84.1204 166° South 473 544 37,000  Level FlightAware ADS-B (KONZ)
Sun 09:55:19 30.5116 -84.0944 166° South 473 544 37,000  Level FlightAware ADS-B (KONZ)
Sun 09:55:56 30.4359 -84.0725 166° South 473 544 37,000  Level FlightAware ADS-B (KONZ)
Sun 09:56:37 30.3449 -84.0461 166° South 473 544 37,000 -150 Level FlightAware ADS-B (KONZ)
Sun 09:57:16 30.2671 -84.0235 166° South 472 543 36,800 -667 Descending FlightAware ADS-B (KONZ)
Sun 09:58:07 30.1540 -83.9905 166° South 474 545 36,000 -936 Descending FlightAware ADS-B (KONZ)
Sun 09:59:05 30.0291 -83.9545 166° South 472 543 35,100 -933 Descending FlightAware ADS-B (KONZ)
Sun 09:59:37 29.9652 -83.9359 166° South 473 544 34,600 -932 Descending FlightAware ADS-B (KONZ)
Sun 10:00:48 29.8261 -83.8981 166° South 475 547 33,500 -916 Descending Jacksonville Center
Sun 10:01:48 29.7097 -83.8253 151° Southeast 466 536 32,600 -950 Descending Jacksonville Center
Sun 10:02:48 29.5978 -83.7500 150° Southeast 466 536 31,600 -1,000 Descending Jacksonville Center
Sun 10:03:48 29.4792 -83.6750 151° Southeast 471 542 30,600 -950 Descending Jacksonville Center
Sun 10:04:48 29.3669 -83.6028 151° Southeast 471 542 29,700 -1,450 Descending Jacksonville Center
Sun 10:05:48 29.2544 -83.5353 152° Southeast 459 528 27,700 -1,400 Descending Jacksonville Center
Sun 10:06:48 29.1483 -83.4656 150° Southeast 448 516 26,900 -1,850 Descending Jacksonville Center
Sun 10:07:48 29.0422 -83.3961 150° Southeast 443 510 24,000 -2,400 Descending Jacksonville Center
Sun 10:08:48 28.9358 -83.3292 151° Southeast 443 510 22,100 -1,850 Descending Jacksonville Center
Sun 10:09:48 28.8339 -83.2600 149° Southeast 433 498 20,300 -1,700 Descending Jacksonville Center
Sun 10:10:48 28.7422 -83.2053 152° Southeast 410 472 18,700 -1,600 Descending Jacksonville Center
Sun 10:11:48 28.6483 -83.1481 152° Southeast 389 448 17,100 -1,600 Descending Jacksonville Center
Sun 10:12:48 28.5608 -83.0911 150° Southeast 379 436 15,500 -1,650 Descending Jacksonville Center
Sun 10:13:48 28.4667 -83.0333 152° Southeast 358 412 13,800 -1,400 Descending Tampa TRACON
Sun 10:14:48 28.3833 -82.9833 152° Southeast 333 383 12,700 -1,250 Descending Tampa TRACON
Sun 10:15:48 28.3000 -82.9500 161° South 307 353 11,300 -1,400 Descending Tampa TRACON
Sun 10:16:48 28.2167 -82.9500 180° South 305 351 9,900 -1,550 Descending Tampa TRACON
Sun 10:17:48 28.1333 -82.9333 170° South 295 339 8,200 -1,500 Descending Tampa TRACON
Sun 10:18:48 28.0500 -82.9333 180° South 291 335 6,900 -1,200 Descending Tampa TRACON
Sun 10:19:48 27.9833 -82.9167 168° South 261 300 5,800 -1,143 Descending Tampa TRACON
Sun 10:20:54 27.9167 -82.8833 156° South 220 253 4,500 -857 Descending Tampa TRACON
Sun 10:21:54 27.8500 -82.8500 156° South 220 253 4,000 -300 Descending Tampa TRACON
Sun 10:22:54 27.8167 -82.8167 139° Southeast 222 255 3,900 -209 Descending Tampa TRACON
Sun 10:23:49 27.8000 -82.7500 106° East 197 227 3,600 -737 Descending Tampa TRACON
Sun 10:24:48 27.8000 -82.7000 90° East 180 207 2,500 -1,059 Descending Tampa TRACON
Sun 10:25:48 27.8333 -82.6833 24° Northeast 164 189 1,500 -1,000 Descending Tampa TRACON
Sun 10:26:48 27.8833 -82.6833 360° North 141 162 500 -1,000 Descending Tampa TRACON

Login

Don't have an account? Register now (free) for customized features, flight alerts, and more!